User: anonymous
Location: Mentone
(34.5413°N, 85.5351°W)
Time: 10:07:32
(UTC-05:00)
Language:

A-11 Canister half - Orbit

View from above orbital plane
View from above orbital plane
View from above satellite
View from above satellite

Ground track
Ground track

The orbit data is extracted from the following two-line orbital elements,

1 00053U 60009E   14236.09055025 -.00000084  00000-0  00000+0 0  5555
2 00053 047.2773 329.6747 0098698 283.2443 138.5038 12.17144836409822
Epoch (UTC): 24 August 2014 02:10:23
Eccentricity: 0.0098698
inclination: 47.2773°
perigee height: 1526 km
apogee height: 1684 km
right ascension of ascending node: 329.6747°
argument of perigee: 283.2443°
revolutions per day: 12.17144836
mean anomaly at epoch: 138.5038°
orbit number at epoch: 40982

The dashed part of the orbit path shows where the satellite is in the earth's shadow,  

DLR